Location: Unspecified
(22.6800°N, 112.2000°E)
Time: 07:07:58
(UTC+08:00)

S-56A Canister/Altair - Pass Details

Date: 24 July 2021
Orbit: 632 x 2500 km, 38.9° (Epoch: 26 September)

Event Time Altitude Azimuth Distance (km) Brightness Sun altitude
Rises 13:20:26 0° 187° (S) 5,127 11.8 79.7°
Reaches altitude 10° 13:24:50 10° 172° (S) 4,435 11.6 78.7°
Maximum altitude 13:33:25 21° 128° (SE) 4,029 11.4 76.7°
Drops below altitude 10° 13:43:07 10° 87° (E) 5,140 11.7 74.5°
Sets 13:48:41 0° 74° (ENE) 6,173 12.0 73.2°
